Albuquerque Double Eagle, NM

12:18 PM MDT on September 25, 2017 (GMT -0600)
Double Eagle Ii

Weather History for KAEG - November, 2012

Change the Weather History Date:

Thursday, November 8, 2012

  Actual Average (KABQ) Record (KABQ)
Temperature  
Mean Temperature 48 °F -  
Max Temperature 64 °F 61 °F 76 °F (1980)
Min Temperature 32 °F 34 °F 17 °F (1938)
Degree Days  
Heating Degree Days 17    
Moisture  
Dew Point 14 °F    
Average Humidity 29    
Maximum Humidity 38    
Minimum Humidity 18    
Precipitation  
Precipitation 0.00 in - - ()
Sea Level Pressure  
Sea Level Pressure 30.08 in    
Wind  
Wind Speed 3 mph (WSW)    
Max Wind Speed 14 mph    
Max Gust Speed -    
Visibility 10 miles    
Events      
Averages and records for this station are not official NWS values.
T = Trace of Precipitation, MM = Missing Value Source: NWS Daily Summary

Daily Weather History Graph

Daily Weather History Graph

Search for Another Location

Airport or City:

Trip Planner

Search our weather history database for the weather conditions in past years. The results will help you decide how hot, cold, wet, or windy it might be!

Date:

Astronomy

Nov. 08, 2012 Rise Set
Actual Time 6:35 AM MST 5:05 PM MST
Civil Twilight 6:08 AM MST 5:32 PM MST
Nautical Twilight 5:38 AM MST 6:02 PM MST
Astronomical Twilight 5:08 AM MST 6:32 PM MST
Moon 12:46 AM MST (11/8) 1:37 PM MST (11/8)
Length of Visible Light 11h 23m
Length of Day
10h 30m
Waning Crescent, 32% of the Moon is Illuminated
Nov 8
Waning Crescent
Nov 13
New
Nov 20
First Quarter
Nov 28
Full
Dec 6
Last Quarter

Hourly Weather History & Observations

Time (MST) Temp. Windchill Dew Point Humidity Pressure Visibility Wind Dir Wind Speed Gust Speed Precip Events Conditions
12:15 AM 37.4 °F - 10.4 °F 33% 30.13 in 10.0 mi Calm Calm - N/A   Clear
12:35 AM 42.8 °F - 14.0 °F 31% 30.13 in 10.0 mi Calm Calm - N/A   Clear
12:55 AM 42.8 °F - 12.2 °F 29% 30.13 in 10.0 mi Calm Calm - N/A   Clear
1:35 AM 44.6 °F - 10.4 °F 25% 30.13 in 10.0 mi Calm Calm - N/A   Clear
1:55 AM 44.6 °F - 10.4 °F 25% 30.13 in 10.0 mi Calm Calm - N/A   Clear
2:15 AM 39.2 °F - 8.6 °F 28% 30.13 in 10.0 mi Calm Calm - N/A   Clear
2:35 AM 41.0 °F - 10.4 °F 29% 30.13 in 10.0 mi Calm Calm - N/A   Clear
2:55 AM 37.4 °F - 8.6 °F 30% 30.13 in 10.0 mi Calm Calm - N/A   Clear
3:15 AM 39.2 °F - 10.4 °F 31% 30.11 in 10.0 mi Calm Calm - N/A   Clear
3:35 AM 35.6 °F - 8.6 °F 33% 30.12 in 10.0 mi Calm Calm - N/A   Clear
3:55 AM 35.6 °F - 8.6 °F 33% 30.12 in 10.0 mi Calm Calm - N/A   Clear
4:15 AM 37.4 °F 32.1 °F 10.4 °F 33% 30.12 in 10.0 mi North 6.9 mph - N/A   Clear
4:35 AM 37.4 °F 32.1 °F 10.4 °F 33% 30.12 in 10.0 mi NNW 6.9 mph - N/A   Clear
5:50 AM 32.0 °F - 8.6 °F 38% 30.12 in 10.0 mi Calm Calm - N/A   Clear
6:50 AM 33.8 °F - 10.4 °F 38% 30.12 in 10.0 mi Calm Calm - N/A   Mostly Cloudy
7:50 AM 39.2 °F - 12.2 °F 33% 30.13 in 10.0 mi Calm Calm - N/A   Mostly Cloudy
8:50 AM 44.6 °F - 14.0 °F 29% 30.14 in 10.0 mi Calm Calm - N/A   Mostly Cloudy
9:50 AM 48.2 °F - 15.8 °F 27% 30.13 in 10.0 mi Calm Calm - N/A   Mostly Cloudy
10:50 AM 55.4 °F - 15.8 °F 21% 30.11 in 10.0 mi Calm Calm - N/A   Mostly Cloudy
11:50 AM 62.6 °F - 17.6 °F 18% 30.08 in 10.0 mi SSE 6.9 mph - N/A   Mostly Cloudy
12:50 PM 60.8 °F - 23.0 °F 23% 30.05 in 10.0 mi SE 9.2 mph - N/A   Mostly Cloudy
2:50 PM 64.4 °F - 19.4 °F 18% 30.02 in 10.0 mi SSE 6.9 mph - N/A   Mostly Cloudy
3:50 PM 64.4 °F - 19.4 °F 18% 30.01 in 10.0 mi South 6.9 mph - N/A   Mostly Cloudy
4:50 PM 60.8 °F - 21.2 °F 22% 30.01 in 10.0 mi SE 6.9 mph - N/A   Mostly Cloudy
5:50 PM 53.6 °F - 17.6 °F 24% 30.01 in 10.0 mi Calm Calm - N/A   Scattered Clouds
6:50 PM 46.4 °F - 15.8 °F 29% 30.01 in 10.0 mi Calm Calm - N/A   Scattered Clouds
9:15 PM 44.6 °F 41.4 °F 15.8 °F 31% 30.01 in 10.0 mi WSW 5.8 mph - N/A   Clear
9:35 PM 42.8 °F 37.5 °F 14.0 °F 31% 30.01 in 10.0 mi WSW 9.2 mph - N/A   Clear
9:55 PM 41.0 °F 34.7 °F 15.8 °F 36% 30.01 in 10.0 mi WSW 10.4 mph - N/A   Clear
10:15 PM 42.8 °F 35.8 °F 15.8 °F 34% 30.02 in 10.0 mi West 13.8 mph - N/A   Clear
10:35 PM 42.8 °F 35.8 °F 17.6 °F 36% 30.02 in 10.0 mi West 13.8 mph - N/A   Clear
10:55 PM 44.6 °F 40.2 °F 15.8 °F 31% 30.01 in 10.0 mi WNW 8.1 mph - N/A   Clear
11:15 PM 44.6 °F 39.7 °F 15.8 °F 31% 30.01 in 10.0 mi WNW 9.2 mph - N/A   Clear
11:35 PM 41.0 °F 33.5 °F 15.8 °F 36% 30.01 in 10.0 mi West 13.8 mph - N/A   Clear
11:55 PM 48.2 °F - 15.8 °F 27% 30.01 in 10.0 mi West 12.7 mph - N/A   Clear